Location: Wien
(48.2082°N, 16.3738°E)
Time: 12:40:26
(UTC+02:00)

Tiros 1 despin weight - Pass Details

Date: 19 September 2024
Orbit: 573 x 615 km, 48.2° (Epoch: 06 October)

Event Time Altitude Azimuth Distance (km) Brightness Sun altitude
Rises 01:22:14 0° 190° (S) 2,838 - -39.9°
Reaches altitude 10° 01:25:42 10° 162° (SSE) 1,950 - -39.8°
Maximum altitude 01:27:41 13° 136° (SE) 1,780 - -39.7°
Drops below altitude 10° 01:29:40 10° 109° (ESE) 1,966 - -39.6°
Sets 01:33:11 0° 82° (E) 2,882 - -39.5°
